Private Wetterstation Wechselburg
Wetterdaten: Samstag, 28.05.2011
Datum Zeit Temp. +2m Bodentemp. Temp.+5cm Temp. Wind Windchill X Diff Temp. Feuchte +2m Feuchte +5cm Sonnenschein Luftdruck Regen Wind Richtung Richtung Sonnenschein UV Taupunkt Windchill Windben
28.05.2011 00:00 14,3 C 18,3 C 12,6 C 13,6 C 12,2 C 0,0 C 65 % 74 % 0 % 1017,1 hPa 0,0 l/m 3,2 km/h (1 Bft) S-SO 157 0 min 0,0 UV-I 7,8 C 12,2 C 2,9 km/h (1 Bft)
28.05.2011 00:10 14,3 C 18,3 C 12,6 C 13,6 C 12,2 C 0,0 C 65 % 74 % 0 % 1017,2 hPa 0,0 l/m 1,8 km/h (1 Bft) N 0 0 min 0,0 UV-I 7,8 C 12,2 C 0,0 km/h (0 Bft)
28.05.2011 00:15 14,1 C 18,3 C 12,7 C 13,4 C 12,1 C 0,0 C 65 % 74 % 0 % 1017,2 hPa 0,0 l/m 0,8 km/h (0 Bft) W-SW 247 0 min 0,0 UV-I 7,6 C 12,1 C 0,0 km/h (0 Bft)
28.05.2011 00:20 14,1 C 18,3 C 12,6 C 13,4 C 12,0 C 0,0 C 67 % 74 % 0 % 1017,2 hPa 0,0 l/m 0,0 km/h (0 Bft) S 180 0 min 0,0 UV-I 8,1 C 12,0 C 0,0 km/h (0 Bft)
28.05.2011 00:25 14,0 C 18,3 C 12,7 C 13,3 C 11,8 C 0,0 C 67 % 75 % 0 % 1017,2 hPa 0,0 l/m 0,0 km/h (0 Bft) S 180 0 min 0,0 UV-I 8,0 C 11,8 C 0,0 km/h (0 Bft)
28.05.2011 00:30 13,9 C 18,3 C 12,6 C 13,2 C 11,8 C 0,0 C 67 % 75 % 0 % 1017,2 hPa 0,0 l/m 0,0 km/h (0 Bft) W 270 0 min 0,0 UV-I 7,9 C 11,8 C 0,0 km/h (0 Bft)
28.05.2011 00:35 14,0 C 18,3 C 12,7 C 13,3 C 11,8 C 0,0 C 68 % 76 % 0 % 1017,2 hPa 0,0 l/m 0,6 km/h (0 Bft) S 180 0 min 0,0 UV-I 8,2 C 11,8 C 2,3 km/h (1 Bft)
28.05.2011 00:40 14,1 C 18,2 C 12,5 C 13,3 C 11,8 C 0,0 C 68 % 76 % 0 % 1017,2 hPa 0,0 l/m 2,1 km/h (1 Bft) W-SW 247 0 min 0,0 UV-I 8,3 C 11,8 C 5,6 km/h (1 Bft)
28.05.2011 00:45 14,0 C 18,2 C 12,4 C 13,3 C 11,8 C 0,0 C 67 % 75 % 0 % 1017,2 hPa 0,0 l/m 2,3 km/h (1 Bft) SW 225 0 min 0,0 UV-I 8,0 C 11,8 C 3,9 km/h (1 Bft)
28.05.2011 00:50 14,0 C 18,2 C 12,4 C 13,2 C 11,7 C 0,0 C 67 % 75 % 0 % 1017,4 hPa 0,0 l/m 2,6 km/h (1 Bft) S 180 0 min 0,0 UV-I 8,0 C 11,7 C 5,8 km/h (2 Bft)
28.05.2011 00:55 14,0 C 18,2 C 12,3 C 13,2 C 11,6 C 0,0 C 67 % 76 % 0 % 1017,4 hPa 0,0 l/m 3,2 km/h (1 Bft) SW 225 0 min 0,0 UV-I 8,0 C 11,6 C 3,5 km/h (1 Bft)
28.05.2011 01:00 13,9 C 18,2 C 12,3 C 13,1 C 11,5 C 0,0 C 67 % 75 % 0 % 1017,4 hPa 0,0 l/m 2,4 km/h (1 Bft) SW 225 0 min 0,0 UV-I 7,9 C 11,5 C 0,0 km/h (0 Bft)
28.05.2011 01:09 13,8 C 18,3 C 12,1 C 12,8 C 10,9 C 0,0 C 68 % 77 % 0 % 1017,2 hPa 0,0 l/m 1,4 km/h (1 Bft) N 0 0 min 0,0 UV-I 8,0 C 10,9 C 2,7 km/h (1 Bft)
28.05.2011 01:15 13,7 C 18,3 C 12,0 C 12,7 C 10,8 C 0,0 C 68 % 77 % 0 % 1017,2 hPa 0,0 l/m 1,6 km/h (1 Bft) SW 225 0 min 0,0 UV-I 7,9 C 10,8 C 1,9 km/h (1 Bft)
28.05.2011 01:20 13,6 C 18,3 C 11,9 C 12,6 C 10,7 C 0,0 C 68 % 77 % 0 % 1017,2 hPa 0,0 l/m 1,1 km/h (1 Bft) SW 225 0 min 0,0 UV-I 7,8 C 10,7 C 2,4 km/h (1 Bft)
28.05.2011 01:25 13,6 C 18,3 C 11,9 C 12,6 C 10,7 C 0,0 C 68 % 78 % 0 % 1017,2 hPa 0,0 l/m 1,3 km/h (1 Bft) S-SW 202 0 min 0,0 UV-I 7,8 C 10,7 C 2,6 km/h (1 Bft)
28.05.2011 01:30 13,5 C 18,2 C 11,9 C 12,5 C 10,6 C 0,0 C 69 % 77 % 0 % 1017,3 hPa 0,0 l/m 1,4 km/h (1 Bft) S 180 0 min 0,0 UV-I 7,9 C 10,6 C 4,3 km/h (1 Bft)
28.05.2011 01:35 13,5 C 18,2 C 11,7 C 12,5 C 10,4 C 0,0 C 69 % 77 % 0 % 1017,3 hPa 0,0 l/m 1,1 km/h (1 Bft) S-SO 157 0 min 0,0 UV-I 7,9 C 10,4 C 2,6 km/h (1 Bft)
28.05.2011 01:40 13,1 C 18,2 C 11,7 C 12,1 C 10,1 C 0,0 C 69 % 78 % 0 % 1017,3 hPa 0,0 l/m 0,5 km/h (0 Bft) O-NO 67 0 min 0,0 UV-I 7,5 C 10,1 C 0,0 km/h (0 Bft)
28.05.2011 01:45 12,8 C 18,2 C 11,4 C 11,9 C 10,0 C 0,0 C 70 % 78 % 0 % 1017,3 hPa 0,0 l/m 0,2 km/h (0 Bft) O-SO 112 0 min 0,0 UV-I 7,5 C 10,0 C 0,0 km/h (0 Bft)
28.05.2011 01:50 12,8 C 18,2 C 11,5 C 11,8 C 9,7 C 0,0 C 71 % 78 % 0 % 1017,5 hPa 0,0 l/m 0,2 km/h (0 Bft) S-SO 157 0 min 0,0 UV-I 7,7 C 9,7 C 0,0 km/h (0 Bft)
28.05.2011 01:55 12,9 C 18,2 C 11,4 C 11,8 C 9,6 C 0,0 C 71 % 79 % 0 % 1017,5 hPa 0,0 l/m 0,3 km/h (0 Bft) SW 225 0 min 0,0 UV-I 7,8 C 9,6 C 0,0 km/h (0 Bft)
28.05.2011 02:00 12,8 C 18,2 C 11,3 C 11,7 C 9,6 C 0,0 C 70 % 79 % 0 % 1017,5 hPa 0,0 l/m 0,2 km/h (0 Bft) S 180 0 min 0,0 UV-I 7,5 C 9,6 C 0,0 km/h (0 Bft)
28.05.2011 02:08 12,8 C 18,2 C 11,3 C 11,7 C 9,5 C 0,0 C 71 % 78 % 0 % 1017,5 hPa 0,0 l/m 0,0 km/h (0 Bft) N 0 0 min 0,0 UV-I 7,7 C 9,5 C 0,0 km/h (0 Bft)
28.05.2011 02:15 12,4 C 18,2 C 11,1 C 11,4 C 9,5 C 0,0 C 72 % 80 % 0 % 1017,6 hPa 0,0 l/m 0,0 km/h (0 Bft) O-NO 67 0 min 0,0 UV-I 7,5 C 9,5 C 0,0 km/h (0 Bft)
28.05.2011 02:20 12,5 C 18,1 C 11,1 C 11,6 C 9,7 C 0,0 C 72 % 79 % 0 % 1017,6 hPa 0,0 l/m 0,0 km/h (0 Bft) O-NO 67 0 min 0,0 UV-I 7,6 C 9,7 C 0,0 km/h (0 Bft)
28.05.2011 02:25 12,4 C 18,1 C 11,0 C 11,5 C 9,7 C 0,0 C 72 % 80 % 0 % 1017,6 hPa 0,0 l/m 0,0 km/h (0 Bft) O-NO 67 0 min 0,0 UV-I 7,5 C 9,7 C 0,0 km/h (0 Bft)
28.05.2011 02:30 12,2 C 18,1 C 11,1 C 11,4 C 9,9 C 0,0 C 72 % 80 % 0 % 1017,6 hPa 0,0 l/m 0,0 km/h (0 Bft) SO 135 0 min 0,0 UV-I 7,3 C 9,9 C 0,0 km/h (0 Bft)
28.05.2011 02:35 12,3 C 18,1 C 11,1 C 11,5 C 10,0 C 0,0 C 72 % 80 % 0 % 1017,6 hPa 0,0 l/m 0,0 km/h (0 Bft) NO 45 0 min 0,0 UV-I 7,4 C 10,0 C 0,0 km/h (0 Bft)
28.05.2011 02:40 12,3 C 18,1 C 11,2 C 11,6 C 10,1 C 0,0 C 72 % 80 % 0 % 1017,6 hPa 0,0 l/m 0,0 km/h (0 Bft) O-NO 67 0 min 0,0 UV-I 7,4 C 10,1 C 0,0 km/h (0 Bft)
28.05.2011 02:45 12,4 C 18,1 C 11,2 C 11,6 C 10,1 C 0,0 C 73 % 81 % 0 % 1017,6 hPa 0,0 l/m 0,2 km/h (0 Bft) S 180 0 min 0,0 UV-I 7,7 C 10,1 C 0,0 km/h (0 Bft)
28.05.2011 02:50 12,4 C 18,1 C 11,2 C 11,6 C 10,1 C 0,0 C 72 % 80 % 0 % 1017,7 hPa 0,0 l/m 0,2 km/h (0 Bft) S 180 0 min 0,0 UV-I 7,5 C 10,1 C 0,0 km/h (0 Bft)
28.05.2011 02:55 12,5 C 18,1 C 11,2 C 11,7 C 10,2 C 0,0 C 72 % 81 % 0 % 1017,7 hPa 0,0 l/m 0,6 km/h (0 Bft) SW 225 0 min 0,0 UV-I 7,6 C 10,2 C 3,4 km/h (1 Bft)
28.05.2011 03:00 12,5 C 18,0 C 11,2 C 11,7 C 10,1 C 0,0 C 72 % 81 % 0 % 1017,7 hPa 0,0 l/m 0,6 km/h (0 Bft) S-SW 202 0 min 0,0 UV-I 7,6 C 10,1 C 0,0 km/h (0 Bft)
28.05.2011 03:08 12,5 C 18,0 C 11,2 C 11,7 C 10,1 C 0,0 C 73 % 81 % 0 % 1017,7 hPa 0,0 l/m 0,6 km/h (0 Bft) N 0 0 min 0,0 UV-I 7,8 C 10,1 C 0,0 km/h (0 Bft)
28.05.2011 03:15 12,3 C 18,0 C 11,1 C 11,3 C 9,3 C 0,0 C 73 % 80 % 0 % 1017,8 hPa 0,0 l/m 0,0 km/h (0 Bft) S-SW 202 0 min 0,0 UV-I 7,6 C 9,3 C 0,0 km/h (0 Bft)
28.05.2011 03:20 12,1 C 18,0 C 10,8 C 11,1 C 9,0 C 0,0 C 74 % 80 % 0 % 1017,8 hPa 0,0 l/m 0,0 km/h (0 Bft) SW 225 0 min 0,0 UV-I 7,6 C 9,0 C 0,0 km/h (0 Bft)
28.05.2011 03:25 12,0 C 18,0 C 10,8 C 11,0 C 8,9 C 0,0 C 74 % 81 % 0 % 1017,8 hPa 0,0 l/m 0,0 km/h (0 Bft) SO 135 0 min 0,0 UV-I 7,5 C 8,9 C 0,0 km/h (0 Bft)
28.05.2011 03:30 12,1 C 18,0 C 10,7 C 11,1 C 9,0 C 0,0 C 74 % 81 % 0 % 1018,0 hPa 0,0 l/m 0,0 km/h (0 Bft) W-SW 247 0 min 0,0 UV-I 7,6 C 9,0 C 0,0 km/h (0 Bft)
28.05.2011 03:35 12,1 C 18,0 C 10,7 C 11,1 C 9,2 C 0,0 C 74 % 83 % 0 % 1018,0 hPa 0,0 l/m 0,0 km/h (0 Bft) SW 225 0 min 0,0 UV-I 7,6 C 9,2 C 0,0 km/h (0 Bft)
28.05.2011 03:40 12,2 C 18,0 C 10,8 C 11,2 C 9,2 C 0,0 C 74 % 83 % 0 % 1018,0 hPa 0,0 l/m 0,0 km/h (0 Bft) S-SW 202 0 min 0,0 UV-I 7,7 C 9,2 C 0,0 km/h (0 Bft)
28.05.2011 03:45 12,2 C 18,0 C 10,7 C 11,2 C 9,3 C 0,0 C 75 % 83 % 0 % 1018,0 hPa 0,0 l/m 0,5 km/h (0 Bft) S-SW 202 0 min 0,0 UV-I 7,9 C 9,3 C 0,0 km/h (0 Bft)
28.05.2011 03:50 12,1 C 18,0 C 10,7 C 11,2 C 9,3 C 0,0 C 75 % 83 % 0 % 1017,8 hPa 0,0 l/m 0,5 km/h (0 Bft) W-SW 247 0 min 0,0 UV-I 7,8 C 9,3 C 0,0 km/h (0 Bft)
28.05.2011 03:55 12,0 C 18,0 C 10,6 C 11,1 C 9,2 C 0,0 C 74 % 83 % 0 % 1017,8 hPa 0,0 l/m 0,0 km/h (0 Bft) S 180 0 min 0,0 UV-I 7,5 C 9,2 C 0,0 km/h (0 Bft)
28.05.2011 04:00 12,0 C 17,9 C 10,7 C 11,1 C 9,3 C 0,0 C 74 % 83 % 0 % 1017,8 hPa 0,0 l/m 0,2 km/h (0 Bft) W-SW 247 0 min 0,0 UV-I 7,5 C 9,3 C 0,0 km/h (0 Bft)
28.05.2011 04:08 12,0 C 17,9 C 10,7 C 11,1 C 9,4 C 0,0 C 75 % 83 % 0 % 1017,8 hPa 0,0 l/m 0,2 km/h (0 Bft) N 0 0 min 0,0 UV-I 7,7 C 9,4 C 0,0 km/h (0 Bft)
28.05.2011 04:15 12,1 C 17,9 C 10,8 C 11,2 C 9,5 C 0,0 C 74 % 82 % 0 % 1018,4 hPa 0,0 l/m 0,0 km/h (0 Bft) SO 135 0 min 0,0 UV-I 7,6 C 9,5 C 0,0 km/h (0 Bft)
28.05.2011 04:20 12,1 C 17,9 C 10,8 C 11,3 C 9,6 C 0,0 C 74 % 82 % 0 % 1018,4 hPa 0,0 l/m 0,0 km/h (0 Bft) S 180 0 min 0,0 UV-I 7,6 C 9,6 C 0,0 km/h (0 Bft)
28.05.2011 04:25 12,1 C 17,9 C 10,8 C 11,3 C 9,6 C 0,0 C 74 % 83 % 0 % 1018,4 hPa 0,0 l/m 0,0 km/h (0 Bft) SW 225 0 min 0,0 UV-I 7,6 C 9,6 C 0,0 km/h (0 Bft)
28.05.2011 04:30 12,0 C 17,9 C 10,8 C 11,2 C 9,5 C 0,0 C 75 % 83 % 0 % 1018,1 hPa 0,0 l/m 0,0 km/h (0 Bft) S 180 0 min 0,0 UV-I 7,7 C 9,5 C 0,0 km/h (0 Bft)
28.05.2011 04:35 12,0 C 17,9 C 10,8 C 11,1 C 9,4 C 0,0 C 75 % 83 % 0 % 1018,1 hPa 0,0 l/m 0,0 km/h (0 Bft) W-SW 247 0 min 0,0 UV-I 7,7 C 9,4 C 0,0 km/h (0 Bft)
28.05.2011 04:40 11,9 C 17,8 C 10,8 C 11,0 C 9,3 C 0,0 C 75 % 83 % 0 % 1018,1 hPa 0,0 l/m 0,0 km/h (0 Bft) SW 225 0 min 0,0 UV-I 7,6 C 9,3 C 0,0 km/h (0 Bft)
28.05.2011 04:45 11,9 C 17,8 C 10,8 C 11,0 C 9,3 C 0,0 C 75 % 84 % 0 % 1018,1 hPa 0,0 l/m 0,3 km/h (0 Bft) W-SW 247 0 min 0,0 UV-I 7,6 C 9,3 C 1,9 km/h (1 Bft)
28.05.2011 04:50 12,0 C 17,8 C 10,7 C 11,1 C 9,4 C 0,0 C 76 % 84 % 0 % 1018,3 hPa 0,0 l/m 0,5 km/h (0 Bft) SW 225 0 min 0,0 UV-I 7,9 C 9,4 C 0,0 km/h (0 Bft)
28.05.2011 04:55 11,9 C 17,8 C 10,7 C 11,0 C 9,3 C 0,0 C 76 % 84 % 0 % 1018,3 hPa 0,0 l/m 0,3 km/h (0 Bft) SW 225 0 min 0,0 UV-I 7,8 C 9,3 C 1,6 km/h (1 Bft)
28.05.2011 05:00 11,9 C 17,8 C 10,5 C 11,0 C 9,2 C 0,0 C 76 % 84 % 0 % 1018,3 hPa 0,0 l/m 0,2 km/h (0 Bft) S 180 0 min 0,0 UV-I 7,8 C 9,2 C 0,0 km/h (0 Bft)
28.05.2011 05:08 11,9 C 17,8 C 10,4 C 10,9 C 9,0 C 0,0 C 76 % 84 % 0 % 1018,3 hPa 0,0 l/m 0,2 km/h (0 Bft) N 0 0 min 0,0 UV-I 7,8 C 9,0 C 0,0 km/h (0 Bft)
28.05.2011 05:15 11,5 C 17,9 C 10,3 C 10,6 C 8,8 C 0,0 C 76 % 84 % 0 % 1018,4 hPa 0,0 l/m 0,0 km/h (0 Bft) S 180 0 min 0,0 UV-I 7,4 C 8,8 C 0,0 km/h (0 Bft)
28.05.2011 05:20 11,3 C 17,9 C 10,3 C 10,4 C 8,7 C 0,0 C 77 % 84 % 0 % 1018,4 hPa 0,0 l/m 0,0 km/h (0 Bft) S 180 0 min 0,0 UV-I 7,4 C 8,7 C 0,0 km/h (0 Bft)
28.05.2011 05:25 11,2 C 17,9 C 10,0 C 10,3 C 8,6 C 0,0 C 77 % 84 % 0 % 1018,4 hPa 0,0 l/m 0,0 km/h (0 Bft) S 180 0 min 0,0 UV-I 7,3 C 8,6 C 0,0 km/h (0 Bft)
28.05.2011 05:30 11,3 C 17,8 C 10,0 C 10,3 C 8,4 C 0,0 C 78 % 84 % 0 % 1018,8 hPa 0,0 l/m 0,0 km/h (0 Bft) W-SW 247 0 min 0,0 UV-I 7,6 C 8,4 C 0,0 km/h (0 Bft)
28.05.2011 05:35 11,2 C 17,8 C 10,1 C 10,2 C 8,2 C 0,0 C 78 % 84 % 0 % 1018,8 hPa 0,0 l/m 0,0 km/h (0 Bft) W-SW 247 0 min 0,0 UV-I 7,5 C 8,2 C 0,0 km/h (0 Bft)
28.05.2011 05:40 11,3 C 17,8 C 10,0 C 10,2 C 8,1 C 0,0 C 78 % 85 % 0 % 1018,8 hPa 0,0 l/m 0,0 km/h (0 Bft) W-SW 247 0 min 0,0 UV-I 7,6 C 8,1 C 0,0 km/h (0 Bft)
28.05.2011 05:45 11,3 C 17,8 C 9,9 C 10,2 C 8,0 C 0,0 C 78 % 85 % 0 % 1018,8 hPa 0,0 l/m 0,0 km/h (0 Bft) W-SW 247 0 min 0,0 UV-I 7,6 C 8,0 C 0,0 km/h (0 Bft)
28.05.2011 05:50 11,3 C 17,8 C 9,9 C 10,2 C 8,0 C 0,0 C 78 % 86 % 0 % 1018,8 hPa 0,0 l/m 0,0 km/h (0 Bft) W-SW 247 0 min 0,0 UV-I 7,6 C 8,0 C 0,0 km/h (0 Bft)
28.05.2011 05:55 11,2 C 17,8 C 10,0 C 10,1 C 8,0 C 0,0 C 78 % 86 % 0 % 1018,8 hPa 0,0 l/m 0,0 km/h (0 Bft) W-SW 247 0 min 0,0 UV-I 7,5 C 8,0 C 0,0 km/h (0 Bft)
28.05.2011 06:00 11,2 C 17,9 C 9,9 C 10,1 C 8,0 C 0,0 C 79 % 86 % 0 % 1018,8 hPa 0,0 l/m 0,0 km/h (0 Bft) W-SW 247 0 min 0,0 UV-I 7,7 C 8,0 C 0,0 km/h (0 Bft)
28.05.2011 06:08 11,2 C 17,9 C 9,8 C 10,2 C 8,1 C 0,0 C 78 % 86 % 0 % 1018,8 hPa 0,0 l/m 0,0 km/h (0 Bft) N 0 0 min 0,0 UV-I 7,5 C 8,1 C 0,0 km/h (0 Bft)
28.05.2011 06:15 10,9 C 17,8 C 9,7 C 10,0 C 8,1 C 0,0 C 79 % 86 % 0 % 1018,7 hPa 0,0 l/m 0,0 km/h (0 Bft) S 180 0 min 0,0 UV-I 7,4 C 8,1 C 0,0 km/h (0 Bft)
28.05.2011 06:20 11,0 C 17,7 C 9,7 C 10,1 C 8,2 C 0,0 C 79 % 86 % 0 % 1018,7 hPa 0,0 l/m 0,0 km/h (0 Bft) S 180 0 min 0,0 UV-I 7,5 C 8,2 C 0,0 km/h (0 Bft)
28.05.2011 06:25 11,5 C 17,7 C 9,9 C 10,4 C 8,2 C 0,0 C 78 % 87 % 0 % 1018,7 hPa 0,0 l/m 0,0 km/h (0 Bft) W-SW 247 0 min 0,0 UV-I 7,8 C 8,2 C 0,0 km/h (0 Bft)
28.05.2011 06:30 11,7 C 17,7 C 9,7 C 10,6 C 8,4 C 0,0 C 78 % 87 % 0 % 1018,6 hPa 0,0 l/m 0,0 km/h (0 Bft) W-SW 247 0 min 0,0 UV-I 8,0 C 8,4 C 0,0 km/h (0 Bft)
28.05.2011 06:35 11,9 C 17,7 C 9,8 C 10,8 C 8,7 C 0,0 C 78 % 87 % 0 % 1018,6 hPa 0,0 l/m 0,0 km/h (0 Bft) W-SW 247 0 min 0,0 UV-I 8,2 C 8,7 C 0,0 km/h (0 Bft)
28.05.2011 06:40 12,3 C 17,7 C 10,0 C 11,2 C 9,0 C 0,0 C 77 % 87 % 0 % 1018,6 hPa 0,0 l/m 0,0 km/h (0 Bft) W-SW 247 0 min 0,0 UV-I 8,4 C 9,0 C 0,0 km/h (0 Bft)
28.05.2011 06:45 12,3 C 17,6 C 10,0 C 11,3 C 9,2 C 0,0 C 76 % 87 % 0 % 1018,6 hPa 0,0 l/m 0,0 km/h (0 Bft) W-SW 247 0 min 0,0 UV-I 8,2 C 9,2 C 0,0 km/h (0 Bft)
28.05.2011 06:50 14,0 C 17,6 C 9,9 C 12,6 C 9,7 C 0,0 C 74 % 86 % 0 % 1018,9 hPa 0,0 l/m 0,0 km/h (0 Bft) W-SW 247 0 min 0,0 UV-I 9,4 C 9,7 C 0,0 km/h (0 Bft)
28.05.2011 06:55 14,5 C 17,6 C 10,1 C 13,3 C 10,8 C 0,0 C 71 % 87 % 0 % 1018,9 hPa 0,0 l/m 0,2 km/h (0 Bft) SW 225 0 min 0,0 UV-I 9,3 C 10,8 C 0,0 km/h (0 Bft)
28.05.2011 07:00 14,7 C 17,5 C 10,2 C 13,8 C 12,0 C 0,0 C 69 % 86 % 0 % 1018,9 hPa 0,0 l/m 0,2 km/h (0 Bft) SW 225 0 min 0,0 UV-I 9,1 C 12,0 C 0,0 km/h (0 Bft)
28.05.2011 07:08 14,3 C 17,5 C 10,3 C 13,8 C 12,8 C 0,0 C 69 % 86 % 0 % 1018,9 hPa 0,0 l/m 0,0 km/h (0 Bft) N 0 0 min 0,0 UV-I 8,7 C 12,8 C 0,0 km/h (0 Bft)
28.05.2011 07:15 13,1 C 17,6 C 10,3 C 12,7 C 11,8 C 0,0 C 72 % 86 % 0 % 1019,3 hPa 0,0 l/m 0,0 km/h (0 Bft) W-SW 247 0 min 0,1 UV-I 8,2 C 11,8 C 0,0 km/h (0 Bft)
28.05.2011 07:20 13,1 C 17,6 C 10,3 C 13,0 C 12,9 C 0,0 C 73 % 86 % 0 % 1019,3 hPa 0,0 l/m 0,0 km/h (0 Bft) S 180 0 min 0,1 UV-I 8,4 C 12,9 C 2,6 km/h (1 Bft)
28.05.2011 07:25 13,1 C 17,5 C 10,3 C 13,3 C 13,3 C 0,2 C 73 % 86 % 5 % 1019,3 hPa 0,0 l/m 0,2 km/h (0 Bft) S-SO 157 0 min 0,1 UV-I 8,4 C 13,3 C 0,0 km/h (0 Bft)
28.05.2011 07:30 13,1 C 17,5 C 10,4 C 15,0 C 15,0 C 1,9 C 73 % 86 % 50 % 1018,9 hPa 0,0 l/m 0,2 km/h (0 Bft) S-SW 202 0 min 0,1 UV-I 8,4 C 15,0 C 0,0 km/h (0 Bft)
28.05.2011 07:35 13,2 C 17,5 C 10,4 C 16,4 C 16,4 C 3,2 C 73 % 86 % 84 % 1018,9 hPa 0,0 l/m 0,0 km/h (0 Bft) SO 135 0 min 0,1 UV-I 8,5 C 16,4 C 0,0 km/h (0 Bft)
28.05.2011 07:40 13,3 C 17,4 C 10,7 C 17,8 C 17,8 C 4,5 C 73 % 86 % 100 % 1018,9 hPa 0,0 l/m 0,0 km/h (0 Bft) W-SW 247 5 min 0,2 UV-I 8,6 C 17,8 C 0,0 km/h (0 Bft)
28.05.2011 07:45 13,5 C 17,4 C 10,8 C 18,6 C 18,6 C 5,1 C 73 % 86 % 100 % 1018,9 hPa 0,0 l/m 0,2 km/h (0 Bft) S 180 5 min 0,2 UV-I 8,8 C 18,6 C 0,0 km/h (0 Bft)
28.05.2011 07:50 14,1 C 17,4 C 10,9 C 20,0 C 20,0 C 5,9 C 72 % 85 % 100 % 1019,4 hPa 0,0 l/m 0,2 km/h (0 Bft) S 180 5 min 0,2 UV-I 9,1 C 20,0 C 0,0 km/h (0 Bft)
28.05.2011 07:55 14,4 C 17,4 C 10,9 C 20,6 C 20,6 C 6,2 C 71 % 85 % 100 % 1019,4 hPa 0,0 l/m 0,5 km/h (0 Bft) W-SW 247 5 min 0,3 UV-I 9,2 C 20,6 C 2,1 km/h (1 Bft)
28.05.2011 08:00 14,4 C 17,4 C 11,1 C 20,9 C 20,9 C 6,5 C 69 % 84 % 100 % 1019,4 hPa 0,0 l/m 1,0 km/h (0 Bft) S 180 5 min 0,3 UV-I 8,8 C 20,9 C 2,9 km/h (1 Bft)
28.05.2011 08:08 14,4 C 17,4 C 11,3 C 20,3 C 20,3 C 5,9 C 69 % 84 % 100 % 1019,4 hPa 0,0 l/m 1,4 km/h (1 Bft) N 0 8 min 0,3 UV-I 8,8 C 20,3 C 2,9 km/h (1 Bft)
28.05.2011 08:15 14,8 C 17,4 C 11,4 C 20,2 C 20,2 C 5,4 C 69 % 83 % 100 % 1019,2 hPa 0,0 l/m 1,3 km/h (1 Bft) W-SW 247 7 min 0,4 UV-I 9,2 C 20,2 C 1,9 km/h (1 Bft)
28.05.2011 08:20 14,8 C 17,3 C 11,5 C 19,7 C 19,7 C 4,9 C 68 % 82 % 100 % 1019,2 hPa 0,0 l/m 2,1 km/h (1 Bft) S 180 5 min 0,4 UV-I 9,0 C 19,7 C 3,2 km/h (1 Bft)
28.05.2011 08:25 15,1 C 17,3 C 11,5 C 20,3 C 20,3 C 5,2 C 67 % 82 % 100 % 1019,2 hPa 0,0 l/m 2,3 km/h (1 Bft) W-SW 247 5 min 0,5 UV-I 9,0 C 20,3 C 2,9 km/h (1 Bft)
28.05.2011 08:30 15,1 C 17,3 C 11,7 C 20,2 C 20,2 C 5,1 C 66 % 81 % 100 % 1019,3 hPa 0,0 l/m 1,8 km/h (1 Bft) S-SO 157 5 min 0,5 UV-I 8,8 C 20,2 C 1,8 km/h (1 Bft)
28.05.2011 08:35 15,3 C 17,3 C 11,9 C 19,5 C 19,5 C 4,2 C 67 % 81 % 100 % 1019,3 hPa 0,0 l/m 1,4 km/h (1 Bft) S 180 5 min 0,5 UV-I 9,2 C 19,5 C 0,0 km/h (0 Bft)
28.05.2011 08:40 15,2 C 17,3 C 12,1 C 18,5 C 18,5 C 3,3 C 66 % 81 % 87 % 1019,3 hPa 0,0 l/m 2,1 km/h (1 Bft) S 180 5 min 0,4 UV-I 8,9 C 18,5 C 6,1 km/h (2 Bft)
28.05.2011 08:45 14,9 C 17,4 C 12,3 C 17,3 C 17,3 C 2,4 C 66 % 79 % 63 % 1019,3 hPa 0,0 l/m 2,1 km/h (1 Bft) S 180 0 min 0,3 UV-I 8,6 C 17,3 C 3,2 km/h (1 Bft)
28.05.2011 08:50 14,5 C 17,4 C 12,3 C 16,1 C 16,1 C 1,6 C 67 % 79 % 42 % 1019,3 hPa 0,0 l/m 1,6 km/h (1 Bft) NO 45 0 min 0,2 UV-I 8,4 C 16,1 C 0,0 km/h (0 Bft)
28.05.2011 08:55 14,4 C 17,4 C 12,3 C 15,7 C 15,7 C 1,3 C 68 % 81 % 34 % 1019,3 hPa 0,0 l/m 1,4 km/h (1 Bft) SW 225 0 min 0,4 UV-I 8,6 C 15,7 C 5,5 km/h (1 Bft)
28.05.2011 09:00 14,7 C 17,4 C 12,3 C 16,1 C 16,1 C 1,4 C 68 % 79 % 37 % 1019,3 hPa 0,0 l/m 1,8 km/h (1 Bft) S-SW 202 0 min 0,6 UV-I 8,9 C 16,1 C 4,3 km/h (1 Bft)
28.05.2011 09:10 14,8 C 17,3 C 12,4 C 17,4 C 17,4 C 2,6 C 67 % 78 % 68 % 1019,5 hPa 0,0 l/m 3,1 km/h (1 Bft) N 0 0 min 0,6 UV-I 8,7 C 17,4 C 7,2 km/h (2 Bft)
28.05.2011 09:15 14,7 C 17,3 C 12,4 C 17,0 C 17,0 C 2,3 C 67 % 79 % 61 % 1019,5 hPa 0,0 l/m 2,1 km/h (1 Bft) SO 135 0 min 0,4 UV-I 8,6 C 17,0 C 1,6 km/h (1 Bft)
28.05.2011 09:20 14,5 C 17,4 C 12,5 C 16,3 C 16,3 C 1,8 C 67 % 79 % 47 % 1019,5 hPa 0,0 l/m 1,4 km/h (1 Bft) S 180 0 min 0,1 UV-I 8,4 C 16,3 C 1,8 km/h (1 Bft)
28.05.2011 09:25 14,4 C 17,4 C 12,5 C 15,4 C 15,4 C 1,0 C 68 % 79 % 26 % 1019,5 hPa 0,0 l/m 1,4 km/h (1 Bft) SW 225 0 min 0,2 UV-I 8,6 C 15,4 C 5,1 km/h (1 Bft)
28.05.2011 09:30 14,4 C 17,3 C 12,4 C 14,5 C 14,5 C 0,1 C 68 % 78 % 3 % 1019,4 hPa 0,0 l/m 2,7 km/h (1 Bft) SW 225 0 min 0,4 UV-I 8,6 C 14,5 C 3,4 km/h (1 Bft)
28.05.2011 09:35 14,6 C 17,3 C 12,4 C 15,4 C 15,4 C 0,8 C 68 % 79 % 21 % 1019,4 hPa 0,0 l/m 2,4 km/h (1 Bft) S 180 0 min 0,9 UV-I 8,8 C 15,4 C 2,6 km/h (1 Bft)
28.05.2011 09:40 14,8 C 17,3 C 12,5 C 17,6 C 17,6 C 2,8 C 68 % 79 % 74 % 1019,4 hPa 0,0 l/m 1,8 km/h (1 Bft) S-SW 202 0 min 0,9 UV-I 9,0 C 17,6 C 1,8 km/h (1 Bft)
28.05.2011 09:45 15,1 C 17,3 C 12,6 C 19,0 C 19,0 C 3,9 C 67 % 79 % 100 % 1019,4 hPa 0,0 l/m 1,6 km/h (1 Bft) N-NO 22 5 min 0,9 UV-I 9,0 C 19,0 C 0,0 km/h (0 Bft)
28.05.2011 09:50 15,1 C 17,3 C 12,6 C 20,7 C 20,7 C 5,6 C 66 % 78 % 100 % 1019,2 hPa 0,0 l/m 1,0 km/h (0 Bft) N-NO 22 5 min 0,9 UV-I 8,8 C 20,7 C 0,0 km/h (0 Bft)
28.05.2011 09:55 15,1 C 17,3 C 12,8 C 19,7 C 19,7 C 4,6 C 67 % 78 % 100 % 1019,2 hPa 0,0 l/m 1,1 km/h (1 Bft) SW 225 5 min 0,9 UV-I 9,0 C 19,7 C 5,0 km/h (1 Bft)
28.05.2011 10:00 15,1 C 17,3 C 13,1 C 19,3 C 19,3 C 4,2 C 66 % 78 % 100 % 1019,2 hPa 0,0 l/m 1,9 km/h (1 Bft) S-SW 202 5 min 0,9 UV-I 8,8 C 19,3 C 1,9 km/h (1 Bft)
28.05.2011 10:10 15,0 C 17,3 C 13,2 C 17,9 C 17,9 C 2,9 C 66 % 74 % 76 % 1018,9 hPa 0,0 l/m 1,8 km/h (1 Bft) N 0 0 min 0,6 UV-I 8,7 C 17,9 C 1,9 km/h (1 Bft)
28.05.2011 10:15 15,0 C 17,3 C 13,2 C 17,3 C 17,3 C 2,3 C 66 % 75 % 61 % 1018,9 hPa 0,0 l/m 2,3 km/h (1 Bft) W-SW 247 0 min 0,4 UV-I 8,7 C 17,3 C 4,5 km/h (1 Bft)
28.05.2011 10:20 14,9 C 17,2 C 13,2 C 16,6 C 16,6 C 1,7 C 66 % 76 % 45 % 1018,9 hPa 0,0 l/m 1,8 km/h (1 Bft) S-SW 202 0 min 0,5 UV-I 8,6 C 16,6 C 4,3 km/h (1 Bft)
28.05.2011 10:25 14,9 C 17,2 C 13,3 C 16,4 C 16,4 C 1,5 C 66 % 75 % 39 % 1018,9 hPa 0,0 l/m 2,1 km/h (1 Bft) S 180 0 min 0,6 UV-I 8,6 C 16,4 C 2,9 km/h (1 Bft)
28.05.2011 10:30 14,9 C 17,2 C 13,3 C 16,0 C 16,0 C 1,1 C 66 % 77 % 29 % 1019,0 hPa 0,0 l/m 2,7 km/h (1 Bft) SW 225 0 min 0,5 UV-I 8,6 C 16,0 C 4,5 km/h (1 Bft)
28.05.2011 10:35 15,1 C 17,2 C 13,4 C 15,9 C 15,9 C 0,8 C 66 % 74 % 21 % 1019,0 hPa 0,0 l/m 3,1 km/h (1 Bft) SW 225 0 min 0,6 UV-I 8,8 C 15,9 C 5,5 km/h (1 Bft)
28.05.2011 10:40 15,1 C 17,2 C 13,5 C 15,9 C 15,9 C 0,8 C 65 % 75 % 21 % 1019,0 hPa 0,0 l/m 3,9 km/h (1 Bft) W 270 0 min 0,9 UV-I 8,6 C 15,9 C 3,5 km/h (1 Bft)
28.05.2011 10:45 14,9 C 17,2 C 13,5 C 15,9 C 15,9 C 1,0 C 65 % 75 % 26 % 1019,0 hPa 0,0 l/m 3,4 km/h (1 Bft) SW 225 0 min 0,7 UV-I 8,4 C 15,9 C 5,3 km/h (1 Bft)
28.05.2011 10:50 14,8 C 17,2 C 13,4 C 15,5 C 15,5 C 0,7 C 65 % 73 % 18 % 1018,9 hPa 0,0 l/m 3,5 km/h (1 Bft) W-SW 247 0 min 0,5 UV-I 8,3 C 15,5 C 4,0 km/h (1 Bft)
28.05.2011 10:55 14,8 C 17,3 C 13,5 C 15,3 C 15,3 C 0,5 C 65 % 74 % 13 % 1018,9 hPa 0,0 l/m 3,5 km/h (1 Bft) NW 315 0 min 0,8 UV-I 8,3 C 15,3 C 1,6 km/h (1 Bft)
28.05.2011 11:00 15,1 C 17,2 C 13,5 C 15,6 C 15,6 C 0,5 C 65 % 75 % 13 % 1018,9 hPa 0,0 l/m 1,8 km/h (1 Bft) W-SW 247 0 min 1,1 UV-I 8,6 C 15,6 C 3,7 km/h (1 Bft)
28.05.2011 11:10 15,0 C 17,3 C 13,7 C 16,4 C 16,4 C 1,4 C 65 % 73 % 37 % 1018,4 hPa 0,0 l/m 2,3 km/h (1 Bft) N 0 0 min 0,6 UV-I 8,5 C 16,4 C 3,1 km/h (1 Bft)
28.05.2011 11:15 15,1 C 17,3 C 13,6 C 16,2 C 16,2 C 1,1 C 65 % 74 % 29 % 1018,4 hPa 0,0 l/m 2,6 km/h (1 Bft) O-SO 112 0 min 0,9 UV-I 8,6 C 16,2 C 6,6 km/h (2 Bft)
28.05.2011 11:20 15,7 C 17,3 C 14,2 C 18,5 C 18,5 C 2,8 C 64 % 73 % 74 % 1018,4 hPa 0,0 l/m 4,2 km/h (1 Bft) W-SW 247 0 min 2,0 UV-I 8,9 C 18,5 C 9,0 km/h (2 Bft)
28.05.2011 11:25 16,1 C 17,3 C 14,5 C 19,7 C 19,7 C 3,6 C 62 % 70 % 95 % 1018,4 hPa 0,0 l/m 4,8 km/h (1 Bft) W-SW 247 5 min 1,6 UV-I 8,8 C 19,7 C 6,9 km/h (2 Bft)
28.05.2011 11:30 16,3 C 17,3 C 14,7 C 20,3 C 20,3 C 4,0 C 62 % 72 % 100 % 1018,4 hPa 0,0 l/m 4,0 km/h (1 Bft) S 180 5 min 1,4 UV-I 9,0 C 20,3 C 4,3 km/h (1 Bft)
28.05.2011 11:35 16,3 C 17,3 C 14,9 C 20,6 C 20,6 C 4,3 C 61 % 68 % 100 % 1018,4 hPa 0,0 l/m 3,2 km/h (1 Bft) NO 45 5 min 1,3 UV-I 8,8 C 20,6 C 2,1 km/h (1 Bft)
28.05.2011 11:40 16,3 C 17,3 C 14,8 C 19,3 C 19,3 C 3,0 C 59 % 67 % 79 % 1018,4 hPa 0,0 l/m 3,2 km/h (1 Bft) S 180 0 min 1,1 UV-I 8,3 C 19,3 C 10,5 km/h (2 Bft)
28.05.2011 11:45 16,5 C 17,3 C 15,1 C 20,4 C 20,4 C 3,9 C 59 % 65 % 100 % 1018,4 hPa 0,0 l/m 3,9 km/h (1 Bft) SW 225 5 min 1,6 UV-I 8,5 C 20,4 C 6,1 km/h (2 Bft)
28.05.2011 11:50 16,4 C 17,3 C 15,0 C 19,4 C 19,4 C 3,0 C 58 % 67 % 79 % 1018,2 hPa 0,0 l/m 5,3 km/h (1 Bft) SW 225 0 min 1,3 UV-I 8,1 C 19,4 C 10,0 km/h (2 Bft)
28.05.2011 11:55 16,2 C 17,3 C 15,1 C 18,5 C 18,5 C 2,3 C 57 % 64 % 61 % 1018,2 hPa 0,0 l/m 5,8 km/h (2 Bft) W-SW 247 0 min 1,1 UV-I 7,7 C 18,5 C 7,6 km/h (2 Bft)
28.05.2011 12:00 16,3 C 17,3 C 14,9 C 17,8 C 17,8 C 1,5 C 58 % 67 % 39 % 1018,2 hPa 0,0 l/m 5,8 km/h (2 Bft) SW 225 0 min 1,0 UV-I 8,0 C 17,8 C 11,3 km/h (2 Bft)
28.05.2011 12:10 16,7 C 17,3 C 15,2 C 18,7 C 18,7 C 2,0 C 58 % 64 % 53 % 1018,1 hPa 0,0 l/m 4,5 km/h (1 Bft) N 0 0 min 1,6 UV-I 8,4 C 18,7 C 3,1 km/h (1 Bft)
28.05.2011 12:15 16,9 C 17,4 C 15,5 C 20,0 C 20,0 C 3,1 C 58 % 65 % 82 % 1018,1 hPa 0,0 l/m 3,7 km/h (1 Bft) NW 315 0 min 2,6 UV-I 8,6 C 20,0 C 5,1 km/h (1 Bft)
28.05.2011 12:20 17,5 C 17,3 C 15,7 C 22,1 C 22,1 C 4,6 C 57 % 62 % 100 % 1018,1 hPa 0,0 l/m 2,4 km/h (1 Bft) SW 225 5 min 3,4 UV-I 8,9 C 22,1 C 1,6 km/h (1 Bft)
28.05.2011 12:25 17,5 C 17,3 C 15,8 C 23,0 C 23,0 C 5,5 C 57 % 65 % 100 % 1018,1 hPa 0,0 l/m 1,8 km/h (1 Bft) S 180 5 min 3,4 UV-I 8,9 C 23,0 C 2,7 km/h (1 Bft)
28.05.2011 12:30 17,7 C 17,3 C 16,0 C 23,1 C 23,1 C 5,4 C 56 % 64 % 100 % 1018,1 hPa 0,0 l/m 4,0 km/h (1 Bft) S-SW 202 5 min 3,6 UV-I 8,8 C 23,1 C 5,8 km/h (2 Bft)
28.05.2011 12:35 17,6 C 17,3 C 16,1 C 22,3 C 22,3 C 4,7 C 55 % 62 % 100 % 1018,1 hPa 0,0 l/m 5,3 km/h (1 Bft) S 180 5 min 2,8 UV-I 8,5 C 22,3 C 6,4 km/h (2 Bft)
28.05.2011 12:40 17,6 C 17,3 C 16,4 C 21,8 C 21,8 C 4,2 C 55 % 61 % 100 % 1018,1 hPa 0,0 l/m 4,2 km/h (1 Bft) S 180 5 min 3,0 UV-I 8,5 C 21,8 C 2,1 km/h (1 Bft)
28.05.2011 12:45 17,5 C 17,4 C 16,3 C 21,4 C 21,4 C 3,9 C 55 % 63 % 100 % 1018,1 hPa 0,0 l/m 3,2 km/h (1 Bft) O-SO 112 5 min 2,3 UV-I 8,4 C 21,4 C 2,3 km/h (1 Bft)
28.05.2011 12:50 17,9 C 17,3 C 16,4 C 21,7 C 21,7 C 3,8 C 56 % 61 % 100 % 1018,0 hPa 0,0 l/m 3,2 km/h (1 Bft) SW 225 5 min 3,5 UV-I 9,0 C 21,7 C 6,4 km/h (2 Bft)
28.05.2011 12:55 17,9 C 17,3 C 16,5 C 21,9 C 21,9 C 4,0 C 54 % 61 % 100 % 1018,0 hPa 0,0 l/m 4,0 km/h (1 Bft) SW 225 5 min 3,7 UV-I 8,5 C 21,9 C 8,5 km/h (2 Bft)
28.05.2011 13:00 18,0 C 17,3 C 16,5 C 22,0 C 22,0 C 4,0 C 54 % 61 % 100 % 1018,0 hPa 0,0 l/m 4,2 km/h (1 Bft) N-NO 22 5 min 3,8 UV-I 8,6 C 22,0 C 2,6 km/h (1 Bft)
28.05.2011 13:20 18,8 C 17,4 C 17,1 C 22,8 C 22,8 C 4,0 C 54 % 63 % 100 % 1017,9 hPa 0,0 l/m 5,0 km/h (1 Bft) N 0 20 min 3,8 UV-I 9,3 C 22,8 C 11,4 km/h (2 Bft)
28.05.2011 13:30 19,1 C 17,4 C 17,8 C 22,8 C 22,8 C 3,7 C 51 % 59 % 97 % 1017,4 hPa 0,0 l/m 5,0 km/h (1 Bft) W 270 10 min 3,7 UV-I 8,7 C 22,8 C 12,4 km/h (3 Bft)
28.05.2011 13:35 18,6 C 17,4 C 17,6 C 22,2 C 22,2 C 3,6 C 51 % 59 % 95 % 1017,4 hPa 0,0 l/m 3,5 km/h (1 Bft) SW 225 5 min 2,1 UV-I 8,3 C 22,2 C 6,1 km/h (2 Bft)
28.05.2011 13:40 18,5 C 17,4 C 17,5 C 20,9 C 20,9 C 2,4 C 51 % 57 % 63 % 1017,4 hPa 0,0 l/m 4,2 km/h (1 Bft) W 270 0 min 2,2 UV-I 8,2 C 20,9 C 4,5 km/h (1 Bft)
28.05.2011 13:45 18,4 C 17,4 C 17,3 C 20,3 C 20,3 C 1,9 C 51 % 59 % 50 % 1017,4 hPa 0,0 l/m 5,5 km/h (1 Bft) SW 225 0 min 2,4 UV-I 8,1 C 20,3 C 4,5 km/h (1 Bft)
28.05.2011 13:50 18,5 C 17,4 C 17,3 C 20,0 C 20,0 C 1,5 C 51 % 56 % 39 % 1017,4 hPa 0,0 l/m 4,2 km/h (1 Bft) NO 45 0 min 2,3 UV-I 8,2 C 20,0 C 2,7 km/h (1 Bft)
28.05.2011 13:55 18,4 C 17,4 C 17,5 C 20,5 C 20,5 C 2,1 C 50 % 54 % 55 % 1017,4 hPa 0,0 l/m 2,9 km/h (1 Bft) N-NO 22 0 min 2,7 UV-I 7,8 C 20,5 C 5,8 km/h (2 Bft)
28.05.2011 14:00 18,6 C 17,4 C 17,7 C 21,9 C 21,9 C 3,3 C 49 % 56 % 87 % 1017,4 hPa 0,0 l/m 2,7 km/h (1 Bft) N-NW 337 5 min 3,7 UV-I 7,7 C 21,9 C 9,7 km/h (2 Bft)
28.05.2011 14:18 18,1 C 17,5 C 17,3 C 19,8 C 19,8 C 1,7 C 50 % 56 % 45 % 1017,4 hPa 0,0 l/m 4,7 km/h (1 Bft) S 180 0 min 1,6 UV-I 7,5 C 19,8 C 6,9 km/h (2 Bft)
28.05.2011 14:19 18,2 C 17,5 C 17,2 C 19,5 C 19,5 C 1,3 C 49 % 52 % 34 % 1017,4 hPa 0,0 l/m 4,2 km/h (1 Bft) SW 225 0 min 1,4 UV-I 7,3 C 19,5 C 4,2 km/h (1 Bft)
28.05.2011 14:24 18,2 C 17,5 C 17,3 C 19,5 C 19,5 C 1,3 C 48 % 52 % 34 % 1017,4 hPa 0,0 l/m 4,2 km/h (1 Bft) S-SW 202 0 min 1,4 UV-I 7,0 C 19,5 C 1,8 km/h (1 Bft)
28.05.2011 14:29 18,3 C 17,6 C 17,3 C 20,0 C 20,0 C 1,7 C 48 % 53 % 45 % 1017,1 hPa 0,0 l/m 4,0 km/h (1 Bft) W-SW 247 0 min 1,6 UV-I 7,1 C 20,0 C 7,2 km/h (2 Bft)
28.05.2011 14:34 18,4 C 17,5 C 17,6 C 20,5 C 20,5 C 2,1 C 48 % 54 % 55 % 1017,1 hPa 0,0 l/m 4,0 km/h (1 Bft) W-SW 247 0 min 2,0 UV-I 7,2 C 20,5 C 6,6 km/h (2 Bft)
28.05.2011 14:39 18,4 C 17,5 C 17,6 C 20,6 C 20,6 C 2,2 C 48 % 51 % 58 % 1017,1 hPa 0,0 l/m 4,7 km/h (1 Bft) S 180 0 min 1,8 UV-I 7,2 C 20,6 C 5,3 km/h (1 Bft)
28.05.2011 14:44 18,4 C 17,5 C 17,5 C 20,5 C 20,5 C 2,1 C 47 % 52 % 55 % 1017,1 hPa 0,0 l/m 5,1 km/h (1 Bft) N-NW 337 0 min 1,7 UV-I 6,9 C 20,5 C 11,6 km/h (2 Bft)
28.05.2011 14:49 18,3 C 17,5 C 17,7 C 20,2 C 20,2 C 1,9 C 48 % 54 % 50 % 1017,2 hPa 0,0 l/m 6,0 km/h (2 Bft) SW 225 0 min 1,6 UV-I 7,1 C 20,2 C 7,6 km/h (2 Bft)
28.05.2011 14:54 18,4 C 17,5 C 17,8 C 20,2 C 20,2 C 1,8 C 48 % 52 % 47 % 1017,2 hPa 0,0 l/m 6,4 km/h (2 Bft) SW 225 0 min 1,8 UV-I 7,2 C 20,2 C 3,4 km/h (1 Bft)
28.05.2011 14:59 18,6 C 17,5 C 18,3 C 20,9 C 20,9 C 2,3 C 47 % 52 % 61 % 1017,2 hPa 0,0 l/m 5,0 km/h (1 Bft) S 180 0 min 2,0 UV-I 7,1 C 20,9 C 8,0 km/h (2 Bft)
28.05.2011 15:04 18,5 C 17,5 C 18,0 C 21,0 C 21,0 C 2,5 C 47 % 52 % 66 % 1017,2 hPa 0,0 l/m 4,2 km/h (1 Bft) SO 135 0 min 1,7 UV-I 7,0 C 21,0 C 6,1 km/h (2 Bft)
28.05.2011 15:09 18,3 C 17,5 C 17,5 C 20,4 C 20,4 C 2,1 C 47 % 54 % 55 % 1016,7 hPa 0,0 l/m 3,2 km/h (1 Bft) S 180 0 min 1,0 UV-I 6,8 C 20,4 C 5,8 km/h (2 Bft)
28.05.2011 15:14 18,3 C 17,5 C 17,3 C 20,2 C 20,2 C 1,9 C 48 % 56 % 50 % 1016,7 hPa 0,0 l/m 2,9 km/h (1 Bft) SW 225 0 min 0,8 UV-I 7,1 C 20,2 C 4,2 km/h (1 Bft)
28.05.2011 15:19 18,5 C 17,5 C 17,7 C 20,2 C 20,2 C 1,7 C 47 % 54 % 45 % 1016,7 hPa 0,0 l/m 4,2 km/h (1 Bft) S-SW 202 0 min 1,2 UV-I 7,0 C 20,2 C 8,0 km/h (2 Bft)
28.05.2011 15:24 18,5 C 17,5 C 17,5 C 20,0 C 20,0 C 1,5 C 48 % 56 % 39 % 1016,7 hPa 0,0 l/m 4,7 km/h (1 Bft) SW 225 0 min 1,2 UV-I 7,3 C 20,0 C 6,9 km/h (2 Bft)
28.05.2011 15:29 18,5 C 17,5 C 17,4 C 19,9 C 19,9 C 1,4 C 47 % 53 % 37 % 1016,9 hPa 0,0 l/m 5,1 km/h (1 Bft) SW 225 0 min 1,0 UV-I 7,0 C 19,9 C 6,6 km/h (2 Bft)
28.05.2011 15:34 18,5 C 17,5 C 17,5 C 20,0 C 20,0 C 1,5 C 46 % 52 % 39 % 1016,9 hPa 0,0 l/m 4,7 km/h (1 Bft) N-NW 337 0 min 1,2 UV-I 6,7 C 20,0 C 3,2 km/h (1 Bft)
28.05.2011 15:39 18,8 C 17,5 C 17,9 C 21,1 C 21,1 C 2,3 C 47 % 56 % 61 % 1016,9 hPa 0,0 l/m 2,9 km/h (1 Bft) S-SW 202 0 min 1,5 UV-I 7,2 C 21,1 C 3,7 km/h (1 Bft)
28.05.2011 15:44 18,9 C 17,5 C 18,2 C 21,5 C 21,5 C 2,6 C 46 % 55 % 68 % 1016,9 hPa 0,0 l/m 2,3 km/h (1 Bft) NO 45 0 min 1,5 UV-I 7,0 C 21,5 C 2,4 km/h (1 Bft)
28.05.2011 15:49 19,0 C 17,5 C 18,4 C 21,8 C 21,8 C 2,8 C 45 % 55 % 74 % 1016,9 hPa 0,0 l/m 3,5 km/h (1 Bft) SW 225 0 min 1,5 UV-I 6,8 C 21,8 C 5,0 km/h (1 Bft)
28.05.2011 15:54 19,0 C 17,5 C 18,7 C 21,8 C 21,8 C 2,8 C 43 % 51 % 74 % 1016,9 hPa 0,0 l/m 3,7 km/h (1 Bft) S-SW 202 0 min 1,5 UV-I 6,1 C 21,8 C 6,1 km/h (2 Bft)
28.05.2011 15:59 19,1 C 17,5 C 18,4 C 21,3 C 21,3 C 2,2 C 42 % 49 % 58 % 1016,9 hPa 0,0 l/m 4,0 km/h (1 Bft) SW 225 0 min 1,2 UV-I 5,9 C 21,3 C 6,8 km/h (2 Bft)
28.05.2011 16:04 19,4 C 17,7 C 19,1 C 21,9 C 21,9 C 2,5 C 42 % 48 % 66 % 1016,9 hPa 0,0 l/m 3,9 km/h (1 Bft) SW 225 0 min 1,9 UV-I 6,2 C 21,9 C 1,8 km/h (1 Bft)
28.05.2011 16:09 19,6 C 17,7 C 20,1 C 23,3 C 23,3 C 3,7 C 42 % 49 % 97 % 1016,6 hPa 0,0 l/m 3,7 km/h (1 Bft) S 180 5 min 1,8 UV-I 6,3 C 23,3 C 0,0 km/h (0 Bft)
28.05.2011 16:14 19,5 C 17,7 C 19,8 C 22,7 C 22,7 C 3,2 C 42 % 48 % 84 % 1016,6 hPa 0,0 l/m 3,1 km/h (1 Bft) SW 225 0 min 1,3 UV-I 6,2 C 22,7 C 1,9 km/h (1 Bft)
28.05.2011 16:19 19,6 C 17,7 C 19,5 C 22,4 C 22,4 C 2,8 C 43 % 49 % 74 % 1016,6 hPa 0,0 l/m 2,3 km/h (1 Bft) W-SW 247 0 min 1,3 UV-I 6,7 C 22,4 C 2,6 km/h (1 Bft)
28.05.2011 16:24 19,7 C 17,8 C 19,7 C 22,7 C 22,7 C 3,0 C 43 % 50 % 79 % 1016,6 hPa 0,0 l/m 2,7 km/h (1 Bft) SW 225 0 min 1,2 UV-I 6,8 C 22,7 C 3,4 km/h (1 Bft)
28.05.2011 16:29 19,9 C 17,8 C 19,8 C 22,8 C 22,8 C 2,9 C 44 % 50 % 76 % 1016,4 hPa 0,0 l/m 4,5 km/h (1 Bft) S 180 0 min 1,1 UV-I 7,3 C 22,8 C 9,7 km/h (2 Bft)
28.05.2011 16:34 19,7 C 17,8 C 19,5 C 22,3 C 22,3 C 2,6 C 42 % 47 % 68 % 1016,4 hPa 0,0 l/m 5,0 km/h (1 Bft) W-SW 247 0 min 1,0 UV-I 6,4 C 22,3 C 7,1 km/h (2 Bft)
28.05.2011 16:39 19,6 C 17,8 C 19,2 C 21,7 C 21,7 C 2,1 C 43 % 48 % 55 % 1016,4 hPa 0,0 l/m 5,5 km/h (1 Bft) W-SW 247 0 min 0,8 UV-I 6,7 C 21,7 C 6,1 km/h (2 Bft)
28.05.2011 16:44 19,7 C 17,8 C 19,1 C 21,5 C 21,5 C 1,8 C 44 % 49 % 47 % 1016,4 hPa 0,0 l/m 4,7 km/h (1 Bft) W-SW 247 0 min 0,9 UV-I 7,1 C 21,5 C 2,1 km/h (1 Bft)
28.05.2011 16:49 20,0 C 17,8 C 19,5 C 22,3 C 22,3 C 2,3 C 44 % 49 % 61 % 1016,4 hPa 0,0 l/m 4,0 km/h (1 Bft) SW 225 0 min 1,0 UV-I 7,4 C 22,3 C 5,0 km/h (1 Bft)
28.05.2011 16:54 19,9 C 17,8 C 19,4 C 22,4 C 22,4 C 2,5 C 42 % 48 % 66 % 1016,4 hPa 0,0 l/m 3,9 km/h (1 Bft) S 180 0 min 1,0 UV-I 6,6 C 22,4 C 2,4 km/h (1 Bft)
28.05.2011 16:59 19,7 C 17,8 C 19,1 C 22,6 C 22,6 C 2,9 C 40 % 46 % 76 % 1016,4 hPa 0,0 l/m 1,8 km/h (1 Bft) W-SW 247 0 min 0,9 UV-I 5,7 C 22,6 C 0,0 km/h (0 Bft)
28.05.2011 17:04 19,6 C 17,8 C 18,9 C 22,8 C 22,8 C 3,2 C 42 % 49 % 84 % 1016,4 hPa 0,0 l/m 1,0 km/h (0 Bft) SW 225 0 min 0,9 UV-I 6,3 C 22,8 C 4,0 km/h (1 Bft)
28.05.2011 17:09 19,8 C 17,8 C 18,9 C 22,0 C 22,0 C 2,2 C 42 % 49 % 58 % 1016,4 hPa 0,0 l/m 3,5 km/h (1 Bft) N 360 0 min 0,8 UV-I 6,5 C 22,0 C 6,8 km/h (2 Bft)
28.05.2011 17:14 19,8 C 17,8 C 19,1 C 21,9 C 21,9 C 2,1 C 42 % 48 % 55 % 1016,4 hPa 0,0 l/m 4,5 km/h (1 Bft) S 180 0 min 0,8 UV-I 6,5 C 21,9 C 6,1 km/h (2 Bft)
28.05.2011 17:19 20,1 C 17,9 C 19,1 C 21,7 C 21,7 C 1,6 C 42 % 47 % 42 % 1016,4 hPa 0,0 l/m 4,0 km/h (1 Bft) NO 45 0 min 0,8 UV-I 6,8 C 21,7 C 1,9 km/h (1 Bft)
28.05.2011 17:24 20,5 C 17,9 C 19,5 C 23,1 C 23,1 C 2,6 C 43 % 51 % 68 % 1016,4 hPa 0,0 l/m 3,4 km/h (1 Bft) NO 45 0 min 0,9 UV-I 7,5 C 23,1 C 2,7 km/h (1 Bft)
28.05.2011 17:29 20,8 C 17,9 C 19,7 C 24,6 C 24,6 C 3,8 C 40 % 47 % 100 % 1016,2 hPa 0,0 l/m 2,4 km/h (1 Bft) W-SW 247 5 min 0,8 UV-I 6,7 C 24,6 C 5,3 km/h (1 Bft)
28.05.2011 17:30 20,8 C 17,9 C 19,7 C 24,6 C 24,6 C 3,8 C 40 % 47 % 100 % 1016,2 hPa 0,0 l/m 2,4 km/h (1 Bft) W-SW 247 1 min 0,8 UV-I 6,7 C 24,6 C 5,3 km/h (1 Bft)
28.05.2011 17:35 20,5 C 17,9 C 19,7 C 24,3 C 24,3 C 3,8 C 40 % 48 % 100 % 1016,2 hPa 0,0 l/m 3,4 km/h (1 Bft) W-SW 247 5 min 0,7 UV-I 6,4 C 24,3 C 7,2 km/h (2 Bft)
28.05.2011 17:40 20,0 C 17,9 C 19,1 C 22,2 C 22,2 C 2,2 C 42 % 48 % 58 % 1016,2 hPa 0,0 l/m 3,5 km/h (1 Bft) W-NW 292 0 min 0,5 UV-I 6,7 C 22,2 C 5,6 km/h (1 Bft)
28.05.2011 17:45 20,0 C 17,9 C 18,9 C 21,3 C 21,3 C 1,3 C 41 % 46 % 34 % 1016,2 hPa 0,0 l/m 3,7 km/h (1 Bft) W 270 0 min 0,5 UV-I 6,3 C 21,3 C 6,1 km/h (2 Bft)
28.05.2011 17:50 19,9 C 17,9 C 18,7 C 20,5 C 20,5 C 0,6 C 41 % 48 % 16 % 1016,2 hPa 0,0 l/m 4,7 km/h (1 Bft) W-SW 247 0 min 0,5 UV-I 6,3 C 20,5 C 4,7 km/h (1 Bft)
28.05.2011 17:55 20,2 C 17,9 C 18,8 C 20,8 C 20,8 C 0,6 C 43 % 50 % 16 % 1016,2 hPa 0,0 l/m 4,0 km/h (1 Bft) SW 225 0 min 0,4 UV-I 7,2 C 20,8 C 4,0 km/h (1 Bft)
28.05.2011 18:00 20,3 C 17,9 C 19,1 C 21,4 C 21,4 C 1,1 C 43 % 48 % 29 % 1016,2 hPa 0,0 l/m 3,5 km/h (1 Bft) S-SW 202 0 min 0,4 UV-I 7,3 C 21,4 C 3,5 km/h (1 Bft)
28.05.2011 18:08 20,1 C 17,9 C 19,1 C 21,5 C 21,5 C 1,4 C 43 % 50 % 37 % 1016,2 hPa 0,0 l/m 3,7 km/h (1 Bft) N 0 0 min 0,4 UV-I 7,1 C 21,5 C 2,9 km/h (1 Bft)
28.05.2011 18:15 20,1 C 17,9 C 18,6 C 20,4 C 20,4 C 0,3 C 43 % 51 % 8 % 1016,2 hPa 0,0 l/m 3,2 km/h (1 Bft) W-SW 247 0 min 0,3 UV-I 7,1 C 20,4 C 2,7 km/h (1 Bft)
28.05.2011 18:20 20,3 C 18,0 C 18,8 C 20,6 C 20,6 C 0,3 C 43 % 51 % 8 % 1016,2 hPa 0,0 l/m 3,1 km/h (1 Bft) S 180 0 min 0,3 UV-I 7,3 C 20,6 C 2,6 km/h (1 Bft)
28.05.2011 18:25 20,6 C 18,0 C 18,9 C 21,6 C 21,6 C 1,0 C 42 % 48 % 26 % 1016,2 hPa 0,0 l/m 2,4 km/h (1 Bft) SO 135 0 min 0,3 UV-I 7,2 C 21,6 C 3,7 km/h (1 Bft)
28.05.2011 18:30 20,4 C 18,0 C 18,7 C 21,9 C 21,9 C 1,5 C 42 % 50 % 39 % 1015,9 hPa 0,0 l/m 2,4 km/h (1 Bft) W-SW 247 0 min 0,2 UV-I 7,1 C 21,9 C 3,9 km/h (1 Bft)
28.05.2011 18:35 20,3 C 18,0 C 18,7 C 21,8 C 21,8 C 1,5 C 42 % 50 % 39 % 1015,9 hPa 0,0 l/m 1,9 km/h (1 Bft) SW 225 0 min 0,2 UV-I 7,0 C 21,8 C 3,2 km/h (1 Bft)
28.05.2011 18:40 20,2 C 18,0 C 18,6 C 22,0 C 22,0 C 1,8 C 42 % 50 % 47 % 1015,9 hPa 0,0 l/m 1,1 km/h (1 Bft) O-SO 112 0 min 0,2 UV-I 6,9 C 22,0 C 1,9 km/h (1 Bft)
28.05.2011 18:45 20,3 C 18,0 C 18,6 C 21,9 C 21,9 C 1,6 C 42 % 51 % 42 % 1015,9 hPa 0,0 l/m 0,6 km/h (0 Bft) W 270 0 min 0,2 UV-I 7,0 C 21,9 C 1,8 km/h (1 Bft)
28.05.2011 18:50 20,4 C 18,0 C 18,6 C 21,8 C 21,8 C 1,4 C 43 % 52 % 37 % 1016,1 hPa 0,0 l/m 1,8 km/h (1 Bft) W-SW 247 0 min 0,2 UV-I 7,4 C 21,8 C 5,3 km/h (1 Bft)
28.05.2011 18:55 20,4 C 18,0 C 18,7 C 21,6 C 21,6 C 1,2 C 42 % 51 % 32 % 1016,1 hPa 0,0 l/m 2,3 km/h (1 Bft) S 180 0 min 0,1 UV-I 7,1 C 21,6 C 0,0 km/h (0 Bft)
28.05.2011 19:00 20,7 C 18,0 C 18,7 C 21,8 C 21,8 C 1,1 C 41 % 50 % 29 % 1016,1 hPa 0,0 l/m 1,4 km/h (1 Bft) SO 135 0 min 0,1 UV-I 7,0 C 21,8 C 0,0 km/h (0 Bft)
28.05.2011 19:08 20,6 C 18,0 C 18,5 C 22,2 C 22,2 C 1,6 C 41 % 49 % 42 % 1016,1 hPa 0,0 l/m 0,6 km/h (0 Bft) N 0 0 min 0,1 UV-I 6,9 C 22,2 C 0,0 km/h (0 Bft)
28.05.2011 19:15 20,5 C 18,0 C 18,5 C 21,9 C 21,9 C 1,4 C 44 % 53 % 37 % 1016,0 hPa 0,0 l/m 2,3 km/h (1 Bft) SW 225 0 min 0,1 UV-I 7,8 C 21,9 C 2,6 km/h (1 Bft)
28.05.2011 19:20 20,7 C 18,0 C 18,4 C 21,3 C 21,3 C 0,6 C 44 % 53 % 16 % 1016,0 hPa 0,0 l/m 2,4 km/h (1 Bft) W-SW 247 0 min 0,1 UV-I 8,0 C 21,3 C 5,3 km/h (1 Bft)
28.05.2011 19:25 20,8 C 18,0 C 18,5 C 21,4 C 21,4 C 0,6 C 43 % 52 % 16 % 1016,0 hPa 0,0 l/m 1,8 km/h (1 Bft) O-SO 112 0 min 0,0 UV-I 7,8 C 21,4 C 0,0 km/h (0 Bft)
28.05.2011 19:30 20,4 C 18,0 C 18,3 C 21,6 C 21,6 C 1,2 C 42 % 51 % 32 % 1015,8 hPa 0,0 l/m 1,3 km/h (1 Bft) SW 225 0 min 0,0 UV-I 7,1 C 21,6 C 0,0 km/h (0 Bft)
28.05.2011 19:35 20,0 C 18,0 C 18,1 C 21,0 C 21,0 C 1,0 C 42 % 50 % 26 % 1015,8 hPa 0,0 l/m 0,5 km/h (0 Bft) W 270 0 min 0,0 UV-I 6,7 C 21,0 C 0,0 km/h (0 Bft)
28.05.2011 19:40 19,6 C 18,0 C 17,6 C 19,8 C 19,8 C 0,2 C 45 % 53 % 5 % 1015,8 hPa 0,0 l/m 0,0 km/h (0 Bft) O-NO 67 0 min 0,0 UV-I 7,3 C 19,8 C 0,0 km/h (0 Bft)
28.05.2011 19:45 19,3 C 18,1 C 17,3 C 19,2 C 19,0 C 0,0 C 45 % 54 % 0 % 1015,8 hPa 0,0 l/m 0,0 km/h (0 Bft) O-NO 67 0 min 0,0 UV-I 7,1 C 19,0 C 0,0 km/h (0 Bft)
28.05.2011 19:50 19,2 C 18,1 C 17,1 C 18,9 C 18,4 C 0,0 C 45 % 54 % 0 % 1015,8 hPa 0,0 l/m 0,0 km/h (0 Bft) O-NO 67 0 min 0,0 UV-I 7,0 C 18,4 C 0,0 km/h (0 Bft)
28.05.2011 19:55 19,1 C 18,1 C 17,1 C 18,8 C 18,2 C 0,0 C 45 % 55 % 0 % 1015,8 hPa 0,0 l/m 0,0 km/h (0 Bft) NO 45 0 min 0,0 UV-I 6,9 C 18,2 C 0,0 km/h (0 Bft)
28.05.2011 20:00 19,1 C 18,1 C 16,8 C 18,8 C 18,1 C 0,0 C 48 % 55 % 0 % 1015,8 hPa 0,0 l/m 0,0 km/h (0 Bft) N-NO 22 0 min 0,0 UV-I 7,8 C 18,1 C 0,0 km/h (0 Bft)
28.05.2011 20:08 19,0 C 18,1 C 16,6 C 18,6 C 17,8 C 0,0 C 49 % 56 % 0 % 1015,8 hPa 0,0 l/m 0,0 km/h (0 Bft) N 0 0 min 0,0 UV-I 8,0 C 17,8 C 0,0 km/h (0 Bft)
28.05.2011 20:15 18,4 C 18,1 C 16,3 C 17,8 C 16,6 C 0,0 C 48 % 55 % 0 % 1015,8 hPa 0,0 l/m 0,0 km/h (0 Bft) O-NO 67 0 min 0,0 UV-I 7,2 C 16,6 C 0,0 km/h (0 Bft)
28.05.2011 20:20 18,0 C 18,1 C 16,0 C 17,4 C 16,1 C 0,0 C 48 % 56 % 0 % 1015,8 hPa 0,0 l/m 0,0 km/h (0 Bft) O-NO 67 0 min 0,0 UV-I 6,8 C 16,1 C 0,0 km/h (0 Bft)
28.05.2011 20:25 17,7 C 18,1 C 15,9 C 17,0 C 15,7 C 0,0 C 49 % 57 % 0 % 1015,8 hPa 0,0 l/m 0,0 km/h (0 Bft) N-NO 22 0 min 0,0 UV-I 6,9 C 15,7 C 0,0 km/h (0 Bft)
28.05.2011 20:30 17,6 C 18,1 C 15,7 C 16,8 C 15,3 C 0,0 C 51 % 58 % 0 % 1015,8 hPa 0,0 l/m 0,0 km/h (0 Bft) N-NW 337 0 min 0,0 UV-I 7,3 C 15,3 C 0,0 km/h (0 Bft)
28.05.2011 20:35 17,6 C 18,1 C 15,6 C 16,7 C 15,0 C 0,0 C 51 % 58 % 0 % 1015,8 hPa 0,0 l/m 0,0 km/h (0 Bft) N-NW 337 0 min 0,0 UV-I 7,3 C 15,0 C 0,0 km/h (0 Bft)
28.05.2011 20:40 17,5 C 18,1 C 15,6 C 16,5 C 14,6 C 0,0 C 52 % 61 % 0 % 1015,8 hPa 0,0 l/m 0,0 km/h (0 Bft) N-NW 337 0 min 0,0 UV-I 7,5 C 14,6 C 0,0 km/h (0 Bft)
28.05.2011 20:45 17,6 C 18,1 C 15,5 C 16,6 C 14,6 C 0,0 C 55 % 64 % 0 % 1015,8 hPa 0,0 l/m 0,0 km/h (0 Bft) S-SW 202 0 min 0,0 UV-I 8,5 C 14,6 C 0,0 km/h (0 Bft)
28.05.2011 20:50 17,6 C 18,1 C 15,4 C 16,6 C 14,6 C 0,0 C 56 % 65 % 0 % 1015,5 hPa 0,0 l/m 0,0 km/h (0 Bft) SW 225 0 min 0,0 UV-I 8,7 C 14,6 C 0,0 km/h (0 Bft)
28.05.2011 20:55 17,5 C 18,1 C 15,5 C 16,5 C 14,5 C 0,0 C 57 % 65 % 0 % 1015,5 hPa 0,0 l/m 0,0 km/h (0 Bft) W-SW 247 0 min 0,0 UV-I 8,9 C 14,5 C 0,0 km/h (0 Bft)
28.05.2011 21:00 17,3 C 18,1 C 15,3 C 16,3 C 14,4 C 0,0 C 57 % 67 % 0 % 1015,5 hPa 0,0 l/m 0,0 km/h (0 Bft) SW 225 0 min 0,0 UV-I 8,7 C 14,4 C 0,0 km/h (0 Bft)
28.05.2011 21:08 17,3 C 18,1 C 15,3 C 16,3 C 14,3 C 0,0 C 58 % 67 % 0 % 1015,5 hPa 0,0 l/m 0,0 km/h (0 Bft) N 0 0 min 0,0 UV-I 9,0 C 14,3 C 0,0 km/h (0 Bft)
28.05.2011 21:15 16,9 C 18,1 C 14,9 C 15,8 C 13,6 C 0,0 C 58 % 66 % 0 % 1015,6 hPa 0,0 l/m 0,0 km/h (0 Bft) SW 225 0 min 0,0 UV-I 8,6 C 13,6 C 0,0 km/h (0 Bft)
28.05.2011 21:20 16,8 C 18,1 C 14,8 C 15,6 C 13,1 C 0,0 C 59 % 68 % 0 % 1015,6 hPa 0,0 l/m 0,0 km/h (0 Bft) W-SW 247 0 min 0,0 UV-I 8,7 C 13,1 C 0,0 km/h (0 Bft)
28.05.2011 21:25 16,7 C 18,2 C 14,5 C 15,4 C 12,8 C 0,0 C 59 % 69 % 0 % 1015,6 hPa 0,0 l/m 0,0 km/h (0 Bft) W-SW 247 0 min 0,0 UV-I 8,6 C 12,8 C 0,0 km/h (0 Bft)
28.05.2011 21:30 16,5 C 18,2 C 14,4 C 15,1 C 12,4 C 0,0 C 60 % 69 % 0 % 1015,4 hPa 0,0 l/m 0,0 km/h (0 Bft) W-SW 247 0 min 0,0 UV-I 8,7 C 12,4 C 0,0 km/h (0 Bft)
28.05.2011 21:35 16,3 C 18,2 C 14,3 C 14,9 C 12,2 C 0,0 C 60 % 68 % 0 % 1015,4 hPa 0,0 l/m 0,0 km/h (0 Bft) W 270 0 min 0,0 UV-I 8,5 C 12,2 C 0,0 km/h (0 Bft)
28.05.2011 21:40 15,9 C 18,2 C 14,0 C 14,6 C 12,0 C 0,0 C 61 % 69 % 0 % 1015,4 hPa 0,0 l/m 0,0 km/h (0 Bft) NW 315 0 min 0,0 UV-I 8,4 C 12,0 C 0,0 km/h (0 Bft)
28.05.2011 21:45 15,9 C 18,2 C 14,0 C 14,5 C 11,8 C 0,0 C 61 % 68 % 0 % 1015,4 hPa 0,0 l/m 0,0 km/h (0 Bft) NW 315 0 min 0,0 UV-I 8,4 C 11,8 C 0,0 km/h (0 Bft)
28.05.2011 21:50 15,8 C 18,2 C 13,8 C 14,4 C 11,5 C 0,0 C 61 % 70 % 0 % 1015,4 hPa 0,0 l/m 0,0 km/h (0 Bft) SO 135 0 min 0,0 UV-I 8,3 C 11,5 C 0,0 km/h (0 Bft)
28.05.2011 21:55 15,7 C 18,2 C 13,7 C 14,3 C 11,4 C 0,0 C 61 % 69 % 0 % 1015,4 hPa 0,0 l/m 0,0 km/h (0 Bft) S 180 0 min 0,0 UV-I 8,2 C 11,4 C 0,0 km/h (0 Bft)
28.05.2011 22:00 15,5 C 18,2 C 13,6 C 14,1 C 11,2 C 0,0 C 62 % 69 % 0 % 1015,4 hPa 0,0 l/m 0,0 km/h (0 Bft) O 90 0 min 0,0 UV-I 8,3 C 11,2 C 0,0 km/h (0 Bft)
28.05.2011 22:08 15,3 C 18,2 C 13,4 C 13,8 C 10,9 C 0,0 C 62 % 70 % 0 % 1015,4 hPa 0,0 l/m 0,0 km/h (0 Bft) N 0 0 min 0,0 UV-I 8,1 C 10,9 C 0,0 km/h (0 Bft)
28.05.2011 22:15 15,1 C 18,2 C 13,2 C 13,5 C 10,4 C 0,0 C 63 % 70 % 0 % 1015,1 hPa 0,0 l/m 0,0 km/h (0 Bft) W 270 0 min 0,0 UV-I 8,1 C 10,4 C 0,0 km/h (0 Bft)
28.05.2011 22:20 15,1 C 18,2 C 13,1 C 13,5 C 10,2 C 0,0 C 64 % 72 % 0 % 1015,1 hPa 0,0 l/m 0,0 km/h (0 Bft) W-SW 247 0 min 0,0 UV-I 8,3 C 10,2 C 0,0 km/h (0 Bft)
28.05.2011 22:25 14,8 C 18,2 C 12,9 C 13,2 C 10,1 C 0,0 C 64 % 72 % 0 % 1015,1 hPa 0,0 l/m 0,0 km/h (0 Bft) W-SW 247 0 min 0,0 UV-I 8,1 C 10,1 C 0,0 km/h (0 Bft)
28.05.2011 22:30 14,6 C 18,2 C 12,7 C 13,1 C 10,0 C 0,0 C 65 % 73 % 0 % 1015,6 hPa 0,0 l/m 0,0 km/h (0 Bft) W-NW 292 0 min 0,0 UV-I 8,1 C 10,0 C 0,0 km/h (0 Bft)
28.05.2011 22:35 14,7 C 18,2 C 12,7 C 13,1 C 9,9 C 0,0 C 66 % 74 % 0 % 1015,6 hPa 0,0 l/m 0,0 km/h (0 Bft) W-NW 292 0 min 0,0 UV-I 8,4 C 9,9 C 0,0 km/h (0 Bft)
28.05.2011 22:40 14,4 C 18,2 C 12,5 C 12,9 C 9,9 C 0,0 C 67 % 75 % 0 % 1015,6 hPa 0,0 l/m 0,0 km/h (0 Bft) W-NW 292 0 min 0,0 UV-I 8,4 C 9,9 C 0,0 km/h (0 Bft)
28.05.2011 22:45 14,2 C 18,3 C 12,4 C 12,7 C 9,8 C 0,0 C 67 % 75 % 0 % 1015,6 hPa 0,0 l/m 0,0 km/h (0 Bft) W-NW 292 0 min 0,0 UV-I 8,2 C 9,8 C 0,0 km/h (0 Bft)
28.05.2011 22:50 14,3 C 18,2 C 12,3 C 12,7 C 9,5 C 0,0 C 68 % 75 % 0 % 1015,4 hPa 0,0 l/m 0,0 km/h (0 Bft) W-NW 292 0 min 0,0 UV-I 8,5 C 9,5 C 0,0 km/h (0 Bft)
28.05.2011 22:55 14,1 C 18,2 C 12,3 C 12,5 C 9,3 C 0,0 C 68 % 76 % 0 % 1015,4 hPa 0,0 l/m 0,0 km/h (0 Bft) W-SW 247 0 min 0,0 UV-I 8,3 C 9,3 C 0,0 km/h (0 Bft)
28.05.2011 23:00 14,0 C 18,3 C 12,1 C 12,4 C 9,1 C 0,0 C 68 % 77 % 0 % 1015,4 hPa 0,0 l/m 0,0 km/h (0 Bft) W-SW 247 0 min 0,0 UV-I 8,2 C 9,1 C 0,0 km/h (0 Bft)
28.05.2011 23:08 13,8 C 18,3 C 11,8 C 12,2 C 8,9 C 0,0 C 69 % 77 % 0 % 1015,4 hPa 0,0 l/m 0,0 km/h (0 Bft) N 0 0 min 0,0 UV-I 8,2 C 8,9 C 0,0 km/h (0 Bft)
28.05.2011 23:15 13,2 C 18,3 C 11,5 C 11,8 C 8,9 C 0,0 C 70 % 78 % 0 % 1015,4 hPa 0,0 l/m 0,0 km/h (0 Bft) NO 45 0 min 0,0 UV-I 7,9 C 8,9 C 0,0 km/h (0 Bft)
28.05.2011 23:20 13,0 C 18,2 C 11,2 C 11,6 C 8,9 C 0,0 C 70 % 79 % 0 % 1015,4 hPa 0,0 l/m 0,0 km/h (0 Bft) NO 45 0 min 0,0 UV-I 7,7 C 8,9 C 0,0 km/h (0 Bft)
28.05.2011 23:25 12,9 C 18,2 C 11,1 C 11,6 C 8,9 C 0,0 C 70 % 78 % 0 % 1015,4 hPa 0,0 l/m 0,0 km/h (0 Bft) NO 45 0 min 0,0 UV-I 7,6 C 8,9 C 0,0 km/h (0 Bft)
28.05.2011 23:30 12,8 C 18,2 C 11,1 C 11,5 C 8,8 C 0,0 C 70 % 79 % 0 % 1014,7 hPa 0,0 l/m 0,0 km/h (0 Bft) NO 45 0 min 0,0 UV-I 7,5 C 8,8 C 0,0 km/h (0 Bft)
28.05.2011 23:35 12,9 C 18,2 C 11,1 C 11,5 C 8,7 C 0,0 C 71 % 79 % 0 % 1014,7 hPa 0,0 l/m 0,0 km/h (0 Bft) W 270 0 min 0,0 UV-I 7,8 C 8,7 C 0,0 km/h (0 Bft)
28.05.2011 23:40 13,0 C 18,2 C 11,1 C 11,5 C 8,5 C 0,0 C 71 % 80 % 0 % 1014,7 hPa 0,0 l/m 0,0 km/h (0 Bft) SW 225 0 min 0,0 UV-I 7,9 C 8,5 C 0,0 km/h (0 Bft)
28.05.2011 23:45 13,0 C 18,2 C 11,1 C 11,5 C 8,4 C 0,0 C 70 % 80 % 0 % 1014,7 hPa 0,0 l/m 0,0 km/h (0 Bft) S 180 0 min 0,0 UV-I 7,7 C 8,4 C 0,0 km/h (0 Bft)
28.05.2011 23:50 13,0 C 18,2 C 10,8 C 11,5 C 8,5 C 0,0 C 70 % 79 % 0 % 1014,9 hPa 0,0 l/m 0,0 km/h (0 Bft) NO 45 0 min 0,0 UV-I 7,7 C 8,5 C 0,0 km/h (0 Bft)
28.05.2011 23:55 12,7 C 18,2 C 10,6 C 11,3 C 8,5 C 0,0 C 69 % 79 % 0 % 1014,9 hPa 0,0 l/m 0,0 km/h (0 Bft) O-NO 67 0 min 0,0 UV-I 7,2 C 8,5 C 0,0 km/h (0 Bft)
_ Min-Zeit 06:15 10:20 06:15 06:15 05:45 00:00 16:59 16:59 00:00 23:30 - 00:20 - - - 00:00 16:59 05:45 00:10
Minimum _ 10,9 C 17,2 C 9,7 C 10,0 C 8,0 C 0,0 C 40 % 46 % 0 % 1014,7 hPa - 0,0 km/h (0 Bft) - - - 0,0 UV-I 5,7 C 8,0 C 0,0 km/h (0 Bft)
_ Max-Zeit 17:29 00:00 16:09 17:29 17:29 08:00 06:00 06:25 07:40 09:10 00:00 14:54 - - 13:20 13:00 06:50 17:29 13:30
Maximum _ 20,8 C 18,3 C 20,1 C 24,6 C 24,6 C 6,5 C 79 % 87 % 100 % 1019,5 hPa 0,0 l/m 6,4 km/h
SW (2 Bft)
- - 20 min 3,8 UV-I 9,4 C 24,6 C 12,4 km/h
W (3 Bft)
Durchschnitt _ 15,7 C 17,8 C 14,1 C 16,5 C 15,5 C 1,3 C 61 % 69 % 31 % 1017,4 hPa #0,0 l/m 1,7 km/h (1 Bft) SW - #3:26 h 1,2 UV-I 7,9 C 15,5 C 2,4 km/h (1 Bft)
2013 www.wetterstation-wechselburg.de